ASGARDIA 1 (43049 NORAD) Tracking and Keplerian Element Data

This shows tracking and keplerian element data for the satellite.

Feedback or suggestion? Click here.




ElementValue
Catalog43049
NameASGARDIA 1
Epoch Orbit10873
Epoch Day316.73232381
Epoch Year2019
RAAN53.0144
Inclination51.64
Eccentricity0.0002307
Argument of Perigee2.9361
Mean Anonmoly357.1637
Mean Motion15.42149076
Decay Rate3.911E-05
L11 43049U 17071N 19316.73232381 .00003911 00000-0 99234-4 0 9990
L22 43049 51.6400 53.0144 0002307 2.9361 357.1637 15.42149076108738

Live tracking and technical data element details for ASGARDIA 1 (NORAD 43049). ASGARDIA 1 can be tracked NOW for your location showing map with azimuth and elevation plus other details from your city location.

Track the satellite on the map from your city or location and see movement details for azimuth, elevation, latitude, longitude, range, height, and movement on the map or in text.







IsCatalogInMostPopularTable: catalog: 43049, numindb: 332
Update: records affected: 1



GetName: 43049 ASGARDIA 1

Hit Count: updated at: Wed, 13 Nov 2019 16:44:01 GMT